Location: Long Geng
(2.6167°N, 114.1333°E)
Time: 11:30:38
(UTC+00:00)

Ariane 44LP R/B - Visible Passes

Search period start: 20 September 2021 00:00
Search period end: 30 September 2021 00:00
Orbit: 484 x 17825 km, 3.6° (Epoch: 19 September)

Date Brightness Start Highest point End Pass type
(mag) Time Alt. Az. Time Alt. Az. Time Alt. Az.
20 Sep 6.8 09:26:51 10° W 12:25:44 75° S 12:32:19 49° ESE visible
21 Sep 8.1 15:09:49 10° W 15:17:53 21° WSW 15:17:53 21° WSW visible
21 Sep 4.9 21:05:08 30° W 21:07:47 89° N 21:24:45 10° E visible
22 Sep 6.7 09:49:59 10° W 12:37:12 74° S 12:42:19 55° ESE visible
23 Sep 8.2 15:22:37 10° W 15:27:53 17° W 15:27:53 17° W visible
23 Sep 5.1 21:15:08 22° W 21:18:30 87° N 21:37:46 10° E visible
24 Sep 6.7 10:16:03 10° W 12:48:36 74° S 12:52:18 61° SE visible
25 Sep 8.3 15:35:08 10° W 15:37:53 14° W 15:37:53 14° W visible
25 Sep 5.3 21:25:08 17° W 21:29:14 86° N 21:51:10 10° E visible
26 Sep 6.6 10:45:20 10° W 12:59:54 74° S 13:02:19 67° SE visible
27 Sep 8.4 15:47:23 10° W 15:47:53 11° W 15:47:53 11° W visible
27 Sep 5.5 21:35:07 12° W 21:40:00 86° N 22:05:02 10° E visible
28 Sep 6.6 11:16:44 10° W 13:11:08 73° S 13:12:18 72° SSE visible
29 Sep 5.7 21:45:20 10° W 21:50:47 86° N 22:19:28 10° E visible
